Denver Centennial, CO

3:28 PM MDT on April 20, 2018 (GMT -0600)
Centennial

Weather History for KAPA - April, 2012

Change the Weather History Date:

Saturday, April 21, 2012

  Actual Average Record
Temperature  
Mean Temperature 59 °F -  
Max Temperature 74 °F 57 °F 74 °F (2012)
Min Temperature 44 °F 32 °F 26 °F (2002)
Degree Days  
Heating Degree Days 6    
Month to date heating degree days 309  
Growing Degree Days 10 (Base 50)    
Moisture  
Dew Point 31 °F    
Average Humidity 35    
Maximum Humidity 50    
Minimum Humidity 20    
Precipitation  
Precipitation 0.00 in - - ()
Month to date precipitation 1.20  
Year to date precipitation 3.12  
Sea Level Pressure  
Sea Level Pressure 30.04 in    
Wind  
Wind Speed 8 mph (ENE)    
Max Wind Speed 18 mph    
Max Gust Speed 29 mph    
Visibility 10 miles    
Events      
Averages and records for this station are not official NWS values.
T = Trace of Precipitation, MM = Missing Value Source: NWS Daily Summary

Daily Weather History Graph

Daily Weather History Graph

Search for Another Location

Airport or City:

Astronomy

Apr. 21, 2012 Rise Set
Actual Time 6:12 AM MDT 7:43 PM MDT
Civil Twilight 5:44 AM MDT 8:12 PM MDT
Nautical Twilight 5:10 AM MDT 8:46 PM MDT
Astronomical Twilight 4:34 AM MDT 9:22 PM MDT
Moon 6:10 AM MDT (4/21) 8:27 PM MDT (4/21)
Length of Visible Light 14h 27m
Length of Day
13h 31m
New Moon, 0% of the Moon is Illuminated
Apr 21
New Moon
Apr 29
First Quarter
May 5
Full
May 12
Last Quarter
May 20
New

Hourly Weather History & Observations

Time (MDT) Temp. Dew Point Humidity Pressure Visibility Wind Dir Wind Speed Gust Speed Precip Events Conditions
12:53 AM 51.1 °F 28.9 °F 43% 29.99 in 10.0 mi SSW 10.4 mph - N/A   Clear
1:53 AM 50.0 °F 28.0 °F 43% 29.97 in 10.0 mi SW 8.1 mph - N/A   Clear
2:53 AM 48.9 °F 28.0 °F 44% 29.97 in 10.0 mi SSW 6.9 mph - N/A   Clear
3:53 AM 51.1 °F 26.1 °F 38% 29.95 in 10.0 mi West 5.8 mph - N/A   Clear
4:53 AM 54.0 °F 26.1 °F 34% 29.96 in 10.0 mi WNW 4.6 mph - N/A   Clear
5:53 AM 52.0 °F 27.0 °F 38% 29.99 in 10.0 mi NW 9.2 mph - N/A   Partly Cloudy
6:53 AM 52.0 °F 27.0 °F 38% 30.01 in 10.0 mi Calm Calm - N/A   Scattered Clouds
7:53 AM 57.9 °F 28.0 °F 32% 30.01 in 10.0 mi WNW 8.1 mph - N/A   Scattered Clouds
8:53 AM 62.1 °F 27.0 °F 26% 30.02 in 10.0 mi WNW 12.7 mph 18.4 mph N/A   Scattered Clouds
9:37 AM 62.6 °F 30.2 °F 30% 30.18 in 10.0 mi NNE 11.5 mph 28.8 mph N/A   Scattered Clouds
9:44 AM 60.8 °F 33.8 °F 36% 30.18 in 10.0 mi East 12.7 mph - N/A   Scattered Clouds
9:53 AM 61.0 °F 33.1 °F 35% 30.06 in 10.0 mi ENE 13.8 mph 18.4 mph N/A   Scattered Clouds
10:53 AM 62.1 °F 33.1 °F 34% 30.07 in 10.0 mi East 9.2 mph - N/A   Scattered Clouds
11:53 AM 64.9 °F 32.0 °F 29% 30.06 in 10.0 mi NE 9.2 mph 16.1 mph N/A   Scattered Clouds
12:53 PM 66.9 °F 32.0 °F 27% 30.03 in 10.0 mi NE 8.1 mph - N/A   Partly Cloudy
1:53 PM 70.0 °F 30.9 °F 24% 30.01 in 10.0 mi Calm Calm - N/A   Partly Cloudy
2:53 PM 71.1 °F 30.9 °F 23% 30.00 in 10.0 mi Variable 5.8 mph - N/A   Partly Cloudy
3:53 PM 71.1 °F 28.9 °F 21% 29.97 in 10.0 mi Calm Calm - N/A   Partly Cloudy
4:53 PM 71.1 °F 34.0 °F 26% 29.96 in 10.0 mi East 9.2 mph - N/A   Partly Cloudy
5:53 PM 70.0 °F 33.1 °F 26% 29.99 in 10.0 mi East 9.2 mph - N/A   Scattered Clouds
6:53 PM 64.9 °F 35.1 °F 33% 30.02 in 10.0 mi ESE 10.4 mph - N/A   Mostly Cloudy
7:53 PM 63.0 °F 34.0 °F 34% 30.02 in 10.0 mi ESE 10.4 mph - N/A   Scattered Clouds
8:53 PM 59.0 °F 36.0 °F 42% 30.07 in 10.0 mi ESE 9.2 mph - N/A   Mostly Cloudy
9:53 PM 57.0 °F 36.0 °F 45% 30.14 in 10.0 mi Calm Calm - N/A   Scattered Clouds
10:53 PM 54.0 °F 36.0 °F 51% 30.16 in 10.0 mi Calm Calm - N/A   Scattered Clouds
11:53 PM 54.0 °F 36.0 °F 51% 30.15 in 10.0 mi ESE 4.6 mph - N/A   Scattered Clouds